CZ-6A DEB, 54265

Orbit data source: Space-Track

CZ-6A DEB, 54265 is space debris in SSO originally from a launch on Fri, 11 Nov 2022 UTC launched from the Taiyaun Space Center, China (TSC). Debris objects in space refer to the collection of defunct objects orbiting the Earth. Examples of debris include non-operational satellites, rocket bodies, and fragments generated from explosions, collisions, or faulty payload assembly.

Loading next visibility...
Identifier
54265, 2022-151G
Orbit
SSO
Country
Flag of CNCN / PRC
Related business
Manufacturer
SAST
Mission
Spacecraft
Bus & Motor
Unknown
Mass
Unknown
Launch date (UTC)
2022-11-11 (4 years ago)
Launch vehicle
Unknown
Launch site
Taiyaun Space Center, China (TSC)
Object type
Payload
Rocket body
Debris
Shape & HBR
Unknown shape, 0.2 m
Radar Cross Section
Medium (>0.1 m² and <1 m²)

Expand to show TLE details & history
Last TLE update: 2 days ago

TLE from 2 days ago
0 CZ-6A DEB
1 54265U 22151G   26171.44062604  .00000901  00000-0  11311-2 0  9995
2 54265  99.0513  57.2791 0381445  33.6679 328.8068 13.39764475176111
Epoch: 2026-06-20T10:34Z
TLE epoch observation values (Epoch: 2026-06-20T10:34:30.089Z)
Latitude
-0.00007°
Longitude
-10.00147°
Altitude
871.637 km
Speed
7.535 km/s
True Right ascension
03h 49m 06s
True Declination
0° 00' 00"
Sunlit
Object was in daylight at epoch
Visualization orbit readout
Latitude
Unknown
Longitude
Unknown
Altitude
Unknown
Speed
Unknown
Apparent Right ascension
Unknown
Apparent Declination
Unknown
Sunlit
N/A
Visualization observer readout
Local Sidereal Time
21:41:58
Azimuth
Unknown
Elevation
Unknown
Doppler factor
Unknown
Orbital elements
Apogee altitude
1,392.967 km
Perigee altitude
821.9 km
Semi-major axis
7,485.571 km
Eccentricity
0.03814
Inclination
99.0513°
RAAN
57.2791°
Arg. of periapsis
33.6679°
True anomaly
326.44751°
Mean anomaly
328.8068°
Eccentric anomaly
327.63693°
Mean motion
3.35124 °/min
Orbital period
107.42 mins
BSTAR
0.0011311
Loading maneuver chart data...
Computing Atmospheric mass density...
Loading historical data...
Loading historical data...
Loading historical data...
Loading historical data...
Loading historical data...
Loading historical data...
Loading historical data...

Documentation

Showing up to 5 results
|